�������l�o���
Date,Time,MP-1(��Sv/h),MP-2(��Sv/h),MP-3(��Sv/h),MP-4(��Sv/h),MP-5(��Sv/h),MP-6(��Sv/h),MP-7(��Sv/h),MP-8(��Sv/h),����,����(m/s),���J
2019/09/02,00:00,0.757,1.075,0.743,1.326,0.978,0.430,0.744,0.702,�k�k��,0.9,��
2019/09/02,00:10,0.758,1.073,0.742,1.325,0.978,0.429,0.746,0.701,-,CALM,��
2019/09/02,00:20,0.759,1.073,0.743,1.322,0.978,0.429,0.744,0.703,-,CALM,��
2019/09/02,00:30,0.758,1.074,0.742,1.327,0.979,0.430,0.745,0.702,�k�k��,0.6,��
2019/09/02,00:40,0.757,1.074,0.745,1.324,0.978,0.429,0.744,0.702,�k�k��,0.9,��
2019/09/02,00:50,0.758,1.073,0.742,1.324,0.977,0.429,0.744,0.703,�k��,1.7,��
2019/09/02,01:00,0.757,1.073,0.743,1.325,0.977,0.430,0.744,0.701,�k��,1.2,��
2019/09/02,01:10,0.759,1.071,0.741,1.322,0.980,0.428,0.743,0.702,���k��,0.9,��
2019/09/02,01:20,0.758,1.071,0.744,1.324,0.978,0.430,0.743,0.703,-,CALM,��
2019/09/02,01:30,0.758,1.072,0.744,1.324,0.977,0.429,0.743,0.702,-,CALM,��
2019/09/02,01:40,0.758,1.072,0.744,1.326,0.979,0.427,0.744,0.703,-,CALM,��
2019/09/02,01:50,0.756,1.071,0.742,1.323,0.978,0.429,0.745,0.703,-,CALM,��
2019/09/02,02:00,0.757,1.070,0.743,1.323,0.978,0.428,0.746,0.703,-,CALM,��
2019/09/02,02:10,0.757,1.072,0.743,1.326,0.976,0.429,0.744,0.703,-,CALM,��
2019/09/02,02:20,0.758,1.072,0.745,1.323,0.977,0.428,0.744,0.702,-,CALM,��
2019/09/02,02:30,0.758,1.074,0.744,1.326,0.976,0.428,0.744,0.704,���k��,0.6,��
2019/09/02,02:40,0.758,1.073,0.743,1.324,0.978,0.429,0.744,0.702,�k�k��,0.9,��
2019/09/02,02:50,0.758,1.071,0.742,1.323,0.976,0.429,0.745,0.702,�k�k��,1.4,��
2019/09/02,03:00,0.757,1.072,0.742,1.324,0.976,0.428,0.745,0.701,�k,1.5,��
2019/09/02,03:10,0.758,1.072,0.741,1.325,0.977,0.430,0.745,0.702,�k,1.5,��
2019/09/02,03:20,0.757,1.072,0.742,1.324,0.977,0.428,0.745,0.702,�k�k��,2.6,��
2019/09/02,03:30,0.758,1.071,0.745,1.326,0.977,0.428,0.746,0.703,�k��,2.6,��
2019/09/02,03:40,0.757,1.074,0.741,1.326,0.978,0.428,0.745,0.701,�k��,2.9,��
2019/09/02,03:50,0.756,1.073,0.743,1.324,0.978,0.427,0.744,0.702,�k��,3.7,�L
2019/09/02,04:00,0.756,1.074,0.743,1.324,0.977,0.428,0.744,0.702,�k��,3.5,�L
2019/09/02,04:10,0.757,1.071,0.743,1.323,0.977,0.428,0.744,0.703,�k�k��,4.8,�L
2019/09/02,04:20,0.755,1.073,0.745,1.324,0.976,0.428,0.746,0.702,�k�k��,4.7,�L
2019/09/02,04:30,0.757,1.073,0.745,1.324,0.975,0.427,0.742,0.702,�k�k��,4.3,�L
2019/09/02,04:40,0.756,1.073,0.744,1.325,0.977,0.429,0.745,0.704,�k�k��,4.7,�L
2019/09/02,04:50,0.757,1.073,0.744,1.326,0.978,0.426,0.743,0.703,�k�k��,3.9,��
2019/09/02,05:00,0.756,1.074,0.744,1.322,0.977,0.428,0.744,0.702,�k�k��,4.3,�L
2019/09/02,05:10,0.756,1.072,0.743,1.327,0.977,0.428,0.745,0.703,�k�k��,4.2,�L
2019/09/02,05:20,0.758,1.070,0.744,1.324,0.978,0.430,0.745,0.702,�k�k��,4.6,�L
2019/09/02,05:30,0.756,1.069,0.743,1.326,0.976,0.427,0.743,0.702,�k�k��,5.0,�L
2019/09/02,05:40,0.757,1.074,0.744,1.325,0.978,0.428,0.744,0.703,�k�k��,6.3,�L
2019/09/02,05:50,0.759,1.072,0.744,1.325,0.977,0.427,0.743,0.704,�k�k��,6.6,��
2019/09/02,06:00,0.756,1.071,0.744,1.325,0.979,0.429,0.744,0.702,�k�k��,6.8,��
2019/09/02,06:10,0.757,1.073,0.744,1.325,0.978,0.428,0.744,0.702,�k�k��,6.9,��
2019/09/02,06:20,0.756,1.074,0.745,1.324,0.977,0.429,0.745,0.702,�k�k��,7.4,��
2019/09/02,06:30,0.757,1.072,0.743,1.326,0.977,0.427,0.746,0.702,�k�k��,6.3,��
2019/09/02,06:40,0.758,1.074,0.741,1.325,0.976,0.427,0.745,0.703,�k�k��,6.0,��
2019/09/02,06:50,0.758,1.073,0.744,1.326,0.976,0.428,0.746,0.703,�k�k��,5.1,��
2019/09/02,07:00,0.756,1.070,0.743,1.327,0.979,0.426,0.744,0.702,�k�k��,4.6,��
2019/09/02,07:10,0.758,1.070,0.741,1.323,0.976,0.427,0.744,0.703,�k�k��,5.9,��
2019/09/02,07:20,0.755,1.071,0.743,1.323,0.977,0.427,0.744,0.702,�k,5.0,��
2019/09/02,07:30,0.755,1.071,0.744,1.324,0.977,0.425,0.743,0.702,�k,5.0,��
2019/09/02,07:40,0.756,1.068,0.740,1.326,0.977,0.426,0.743,0.702,�k,5.9,�L
2019/09/02,07:50,0.753,1.070,0.741,1.325,0.978,0.424,0.744,0.701,�k,5.4,�L
2019/09/02,08:00,0.754,1.069,0.738,1.325,0.976,0.424,0.741,0.703,�k�k��,5.4,�L
2019/09/02,08:10,0.755,1.070,0.741,1.326,0.976,0.424,0.741,0.702,�k,5.0,�L
2019/09/02,08:20,0.755,1.064,0.740,1.323,0.976,0.424,0.742,0.701,�k,5.8,�L
2019/09/02,08:30,0.755,1.062,0.736,1.323,0.977,0.424,0.742,0.702,�k,4.3,��
2019/09/02,08:40,0.754,1.064,0.739,1.326,0.978,0.425,0.741,0.703,�k,4.1,��
2019/09/02,08:50,0.755,1.065,0.736,1.326,0.974,0.425,0.743,0.702,�k,5.0,��
2019/09/02,09:00,0.756,1.066,0.741,1.326,0.975,0.424,0.743,0.701,�k�k��,4.8,��
2019/09/02,09:10,0.756,1.064,0.740,1.327,0.974,0.425,0.742,0.700,�k,5.2,��
2019/09/02,09:20,0.757,1.062,0.741,1.325,0.976,0.423,0.743,0.702,�k,4.6,��
2019/09/02,09:30,0.755,1.063,0.738,1.324,0.975,0.424,0.744,0.701,�k,4.8,��
2019/09/02,09:40,0.756,1.060,0.738,1.328,0.973,0.424,0.744,0.700,�k�k��,3.8,��
2019/09/02,09:50,0.756,1.065,0.740,1.325,0.976,0.423,0.744,0.702,�k�k��,4.4,��
2019/09/02,10:00,0.756,1.061,0.741,1.327,0.977,0.424,0.742,0.700,�k�k��,4.3,��
2019/09/02,10:10,0.756,1.065,0.740,1.325,0.975,0.425,0.742,0.700,�k��,3.5,��
2019/09/02,10:20,0.757,1.066,0.740,1.326,0.978,0.425,0.742,0.699,�k��,3.7,��
2019/09/02,10:30,0.756,1.067,0.740,1.324,0.976,0.424,0.744,0.700,�k�k��,3.6,��
2019/09/02,10:40,0.757,1.070,0.741,1.325,0.976,0.424,0.745,0.701,�k��,2.9,��
2019/09/02,10:50,0.756,1.070,0.740,1.325,0.976,0.425,0.745,0.701,�k�k��,2.6,��
2019/09/02,11:00,0.758,1.066,0.737,1.326,0.978,0.425,0.743,0.701,���k��,3.5,��
2019/09/02,11:10,0.755,1.069,0.740,1.323,0.977,0.424,0.744,0.701,�k��,2.9,��
2019/09/02,11:20,0.757,1.069,0.739,1.326,0.978,0.424,0.744,0.700,�k��,3.0,��
2019/09/02,11:30,0.758,1.066,0.740,1.325,0.978,0.424,0.743,0.701,�k��,3.3,��
2019/09/02,11:40,0.761,1.070,0.739,1.325,0.977,0.423,0.744,0.702,�k��,3.6,��
2019/09/02,11:50,0.759,1.069,0.740,1.329,0.979,0.425,0.744,0.702,�k��,3.6,��
2019/09/02,12:00,0.757,1.072,0.742,1.327,0.978,0.424,0.744,0.701,�k��,3.7,��
2019/09/02,12:10,0.756,1.073,0.742,1.326,0.977,0.424,0.743,0.701,�k��,3.4,��
2019/09/02,12:20,0.758,1.073,0.742,1.326,0.979,0.424,0.746,0.702,�k��,3.8,��
2019/09/02,12:30,0.757,1.071,0.742,1.328,0.980,0.425,0.745,0.702,�k��,3.6,��
2019/09/02,12:40,0.759,1.074,0.743,1.327,0.979,0.425,0.744,0.700,�k��,3.4,��
2019/09/02,12:50,0.759,1.072,0.742,1.327,0.980,0.426,0.744,0.703,�k��,3.1,��
2019/09/02,13:00,0.759,1.074,0.743,1.331,0.980,0.425,0.745,0.700,�k��,3.2,��
2019/09/02,13:10,0.758,1.070,0.742,1.328,0.977,0.427,0.745,0.701,�k��,3.7,��
2019/09/02,13:20,0.759,1.071,0.745,1.330,0.979,0.426,0.743,0.702,�k��,3.4,��
2019/09/02,13:30,0.759,1.069,0.744,1.330,0.982,0.426,0.745,0.701,�k��,3.0,��
2019/09/02,13:40,0.759,1.068,0.741,1.328,0.980,0.425,0.746,0.701,�k��,3.0,��
2019/09/02,13:50,0.760,1.070,0.742,1.327,0.982,0.425,0.744,0.702,���k��,2.9,��
2019/09/02,14:00,0.761,1.073,0.742,1.329,0.982,0.425,0.743,0.701,���k��,2.3,��
2019/09/02,14:10,0.762,1.069,0.743,1.328,0.983,0.424,0.745,0.702,���k��,2.9,��
2019/09/02,14:20,0.760,1.071,0.744,1.329,0.984,0.425,0.743,0.701,�k��,2.5,��
2019/09/02,14:30,0.761,1.071,0.742,1.326,0.982,0.424,0.744,0.702,�k��,2.6,��
2019/09/02,14:40,0.762,1.073,0.742,1.328,0.982,0.425,0.745,0.702,�k��,2.9,��
2019/09/02,14:50,0.760,1.073,0.743,1.329,0.980,0.427,0.745,0.702,�k��,2.8,��
2019/09/02,15:00,0.759,1.074,0.745,1.329,0.980,0.424,0.745,0.702,�k��,2.8,��
2019/09/02,15:10,0.758,1.071,0.743,1.331,0.984,0.428,0.746,0.700,�k��,2.0,��
2019/09/02,15:20,0.759,1.073,0.744,1.329,0.985,0.426,0.745,0.700,���k��,2.6,��
2019/09/02,15:30,0.760,1.074,0.743,1.328,0.984,0.426,0.745,0.702,�k��,3.4,�L
2019/09/02,15:40,0.761,1.074,0.744,1.329,0.983,0.427,0.743,0.701,�k��,3.5,�L
2019/09/02,15:50,0.759,1.077,0.743,1.330,0.983,0.427,0.744,0.700,�k�k��,3.3,�L
2019/09/02,16:00,0.758,1.078,0.745,1.326,0.985,0.426,0.745,0.702,�k�k��,3.0,�L
2019/09/02,16:10,0.759,1.079,0.746,1.330,0.982,0.426,0.746,0.701,�k�k��,3.1,�L
2019/09/02,16:20,0.756,1.075,0.743,1.327,0.980,0.427,0.745,0.703,�k�k��,3.3,�L
2019/09/02,16:30,0.757,1.075,0.745,1.328,0.981,0.428,0.745,0.704,�k�k��,4.4,�L
2019/09/02,16:40,0.756,1.072,0.743,1.327,0.980,0.427,0.745,0.702,�k�k��,4.6,�L
2019/09/02,16:50,0.757,1.070,0.744,1.327,0.978,0.426,0.745,0.704,�k�k��,4.1,�L
2019/09/02,17:00,0.755,1.071,0.742,1.328,0.979,0.426,0.744,0.702,�k��,4.8,�L
2019/09/02,17:10,0.757,1.069,0.743,1.325,0.979,0.426,0.744,0.702,�k��,5.8,�L
2019/09/02,17:20,0.755,1.068,0.743,1.325,0.976,0.426,0.742,0.702,�k�k��,7.5,�L
2019/09/02,17:30,0.755,1.065,0.740,1.326,0.975,0.428,0.743,0.700,�k�k��,7.8,�L
2019/09/02,17:40,0.753,1.062,0.739,1.323,0.970,0.427,0.741,0.700,�k�k��,6.6,�L
2019/09/02,17:50,0.749,1.053,0.738,1.313,0.961,0.428,0.741,0.700,�k,8.9,�L
2019/09/02,18:00,0.751,1.045,0.735,1.306,0.958,0.428,0.739,0.696,�k,6.2,�L
2019/09/02,18:10,0.748,1.040,0.733,1.293,0.952,0.429,0.736,0.696,�k��,8.5,�L
2019/09/02,18:20,0.745,1.032,0.727,1.273,0.939,0.426,0.732,0.692,�k�k��,2.6,�L
2019/09/02,18:30,0.740,1.027,0.725,1.267,0.937,0.426,0.728,0.689,�k,3.3,�L
2019/09/02,18:40,0.743,1.028,0.727,1.271,0.940,0.426,0.730,0.691,��,8.1,�L
2019/09/02,18:50,0.740,1.026,0.727,1.266,0.937,0.426,0.728,0.690,��,0.6,�L
2019/09/02,19:00,0.743,1.025,0.724,1.268,0.935,0.425,0.730,0.689,-,CALM,�L
2019/09/02,19:10,0.743,1.026,0.728,1.268,0.936,0.427,0.726,0.689,�k��,2.6,�L
2019/09/02,19:20,0.745,1.027,0.727,1.267,0.939,0.429,0.729,0.691,�k�k��,3.6,�L
2019/09/02,19:30,0.746,1.030,0.726,1.273,0.939,0.429,0.729,0.692,�k�k��,3.5,�L
2019/09/02,19:40,0.747,1.030,0.725,1.274,0.939,0.429,0.729,0.691,�k�k��,2.6,��
2019/09/02,19:50,0.744,1.028,0.722,1.273,0.938,0.425,0.729,0.692,�k�k��,3.0,��
2019/09/02,20:00,0.740,1.026,0.722,1.272,0.938,0.424,0.729,0.691,�k�k��,3.5,��
2019/09/02,20:10,0.740,1.026,0.719,1.275,0.936,0.423,0.727,0.691,�k�k��,3.3,��
2019/09/02,20:20,0.739,1.025,0.718,1.271,0.934,0.422,0.728,0.689,�k�k��,2.5,��
2019/09/02,20:30,0.735,1.023,0.719,1.272,0.935,0.419,0.726,0.689,�k�k��,2.8,��
2019/09/02,20:40,0.736,1.024,0.717,1.272,0.935,0.418,0.726,0.689,�k�k��,2.6,��
2019/09/02,20:50,0.732,1.022,0.716,1.271,0.935,0.417,0.726,0.689,�k�k��,2.3,��
2019/09/02,21:00,0.734,1.022,0.715,1.272,0.930,0.418,0.726,0.688,�k,1.5,��
2019/09/02,21:10,0.732,1.020,0.714,1.271,0.932,0.418,0.725,0.689,�k��,1.1,��
2019/09/02,21:20,0.731,1.021,0.715,1.268,0.929,0.417,0.726,0.689,���k��,1.2,��
2019/09/02,21:30,0.732,1.021,0.714,1.269,0.932,0.418,0.726,0.688,�k�k��,0.6,��
2019/09/02,21:40,0.730,1.019,0.713,1.268,0.929,0.416,0.727,0.689,-,CALM,��
2019/09/02,21:50,0.730,1.021,0.713,1.267,0.930,0.416,0.726,0.688,���k��,0.6,��
2019/09/02,22:00,0.733,1.022,0.714,1.269,0.929,0.417,0.726,0.690,���k��,0.9,��
2019/09/02,22:10,0.731,1.021,0.714,1.269,0.931,0.416,0.726,0.689,�쓌,0.9,��
2019/09/02,22:20,0.729,1.021,0.713,1.271,0.932,0.418,0.727,0.690,�쓌,0.8,��
2019/09/02,22:30,0.731,1.022,0.714,1.269,0.930,0.417,0.727,0.691,��,0.6,��
2019/09/02,22:40,0.732,1.020,0.712,1.269,0.931,0.416,0.728,0.689,�k��,0.8,��
2019/09/02,22:50,0.732,1.022,0.712,1.270,0.932,0.417,0.728,0.690,��,0.9,��
2019/09/02,23:00,0.731,1.024,0.711,1.270,0.932,0.417,0.724,0.689,�k��,0.8,��
2019/09/02,23:10,0.732,1.023,0.712,1.271,0.932,0.417,0.728,0.688,�k��,0.9,��
2019/09/02,23:20,0.733,1.024,0.712,1.271,0.932,0.418,0.727,0.688,�k�k��,1.2,��
2019/09/02,23:30,0.733,1.021,0.713,1.270,0.931,0.417,0.727,0.689,�k��,0.6,��
2019/09/02,23:40,0.732,1.024,0.713,1.269,0.931,0.418,0.729,0.691,�k��,0.8,��
2019/09/02,23:50,0.732,1.024,0.713,1.269,0.932,0.417,0.729,0.689,-,CALM,��
